軌道要素
The following orbital elements are taken from MPC 75725:
Epoch 2010 Feb. 13.0 TT = JDT 2455240.5
T 2010 Feb. 8.2074 TT MPC
q 3.182132 (2000.0) P Q
n 0.0984107 Peri. 154.5454 +0.0846951 -0.9952207
a 4.646306 Node 290.5649 +0.9050807 +0.0972424
e 0.315126 Incl. 2.9758 +0.4167201 -0.0089315
P 10.0
From 651 observations 1999-2011, mean residual 0".7.
|